Weather in Novy Tap

Russia / Tyumen Oblast     57°02′24″N   67°42′57″E
temp.,
°C
wind,
m/s
gust,
m/s
humid.,
%
clouds,
%
prec.,
mm/h
press.,
hPa
HPBL,
m
18 may, tue
tue1823:00+17ssw117972 1.2 101218
02:00+16w31171100 0.0 1011298
05:00+16w3974100 0.0 1012272
08:00+19nw3762100 0.2 1011481
11:00+18w246970 0.4 1012297
14:00+21n475181 0.1 10121072
17:00+19n685663 0.1 10141397
20:00+14nne597397 0.1 1016783
19 may, wed
wed1923:00+12nne597022 0.1 1018969
02:00+10nne310765 0.0 1020523
05:00+9n39755 0.0 1021392
08:00+13nne47475 0.0 10221090
11:00+16n463730 0.0 10231681
14:00+18n57315 0.0 10221906
17:00+18n47325 0.0 10221959
20:00+15nne374578 0.0 1023290
20 may, thu
thu2023:00+10ne245762 0.0 102488
02:00+8e1158100 0.0 102410
05:00+8ssw21595 0.0 102521
08:00+14sw354184 0.0 1023556
11:00+19w5735100 0.0 10211308
14:00+23wnw693196 0.0 10181995
17:00+22wnw393758 0.0 1017491
20:00+21wnw384389 0.0 1017166
21 may, fri
fri2123:00+18wnw31249100 0.0 1017282
02:00+14wnw23705 0.2 101844
05:00+14n11865 0.2 101923
08:00+20ene22635 0.0 1020428
11:00+26e12395 0.0 10201048
14:00+28ese22295 0.0 10191922
17:00+27se33325 0.0 10191757
20:00+22sse385315 0.0 1019191
22 may, sat
sat2223:00+20s395359 0.0 1020226
02:00+17ssw3106317 0.0 1019195
05:00+16sw236756 0.0 102063
08:00+23sw244318 0.0 1019395
11:00+28sw35255 0.0 10182264
14:00+29ssw56215 0.0 10172982
17:00+28sw56235 0.0 10163087
20:00+23ssw25390 0.0 101589